Time,TemperatureF,DewpointF,PressureIn,WindDirection,WindDirectionDegrees,WindSpeedMPH,WindSpeedGustMPH,Humidity,HourlyPrecipIn,Conditions,Clouds,dailyrainin,SoftwareType,DateUTC
2013-03-31 00:00:00,32.7,23.7,30.11,NNE,12,0.0,0.0,69,0.00,,---,0.00,VWS V14.01,2013-03-31 04:00:00,
2013-03-31 00:05:00,32.5,23.8,30.11,NNE,12,0.0,0.0,70,0.00,,---,0.00,VWS V14.01,2013-03-31 04:05:00,
2013-03-31 00:10:00,32.4,24.1,30.11,NNE,12,0.0,0.0,71,0.00,,---,0.00,VWS V14.01,2013-03-31 04:10:00,
2013-03-31 00:15:00,32.5,24.2,30.11,NNE,12,0.0,0.0,71,0.00,,---,0.00,VWS V14.01,2013-03-31 04:15:00,
2013-03-31 00:20:00,32.5,24.5,30.11,NNE,12,0.0,0.0,72,0.00,,---,0.00,VWS V14.01,2013-03-31 04:20:00,
2013-03-31 00:25:00,32.4,24.1,30.11,NNE,12,0.0,0.0,71,0.00,,---,0.00,VWS V14.01,2013-03-31 04:25:00,
2013-03-31 00:30:00,32.3,24.3,30.12,NNE,12,0.0,0.0,72,0.00,,---,0.00,VWS V14.01,2013-03-31 04:30:00,
2013-03-31 00:35:00,32.1,24.1,30.12,NNE,12,0.0,0.0,72,0.00,,---,0.00,VWS V14.01,2013-03-31 04:35:00,
2013-03-31 00:40:00,32.0,24.0,30.12,NNE,12,0.0,0.0,72,0.00,,---,0.00,VWS V14.01,2013-03-31 04:40:00,
2013-03-31 00:45:00,31.8,24.1,30.12,NNE,12,0.0,0.0,73,0.00,,---,0.00,VWS V14.01,2013-03-31 04:45:00,
2013-03-31 00:50:00,31.6,24.0,30.12,NNE,12,0.0,0.0,73,0.00,,---,0.00,VWS V14.01,2013-03-31 04:50:00,
2013-03-31 00:55:00,31.5,23.9,30.12,NNE,12,0.0,0.0,73,0.00,,---,0.00,VWS V14.01,2013-03-31 04:55:00,
2013-03-31 01:00:00,31.3,24.0,30.12,NNE,12,0.0,0.0,74,0.00,,---,0.00,VWS V14.01,2013-03-31 05:00:00,
2013-03-31 01:05:00,31.1,23.8,30.12,NNE,12,0.0,0.0,74,0.00,,---,0.00,VWS V14.01,2013-03-31 05:05:00,
2013-03-31 01:10:00,30.9,23.9,30.12,NNE,12,0.0,0.0,75,0.00,,---,0.00,VWS V14.01,2013-03-31 05:10:00,
2013-03-31 01:15:00,30.8,23.8,30.12,NNE,12,0.0,0.0,75,0.00,,---,0.00,VWS V14.01,2013-03-31 05:15:00,
2013-03-31 01:20:00,30.7,23.4,30.13,NNE,12,0.0,0.0,74,0.00,,---,0.00,VWS V14.01,2013-03-31 05:20:00,
2013-03-31 01:25:00,30.6,23.6,30.13,NNE,12,0.0,0.0,75,0.00,,---,0.00,VWS V14.01,2013-03-31 05:25:00,
2013-03-31 01:30:00,30.6,23.6,30.13,NNE,12,0.0,0.0,75,0.00,,---,0.00,VWS V14.01,2013-03-31 05:30:00,
2013-03-31 01:35:00,30.4,23.8,30.13,NNE,12,0.0,0.0,76,0.00,,---,0.00,VWS V14.01,2013-03-31 05:35:00,
2013-03-31 01:40:00,30.3,23.7,30.13,NNE,12,0.0,0.0,76,0.00,,---,0.00,VWS V14.01,2013-03-31 05:40:00,
2013-03-31 01:45:00,30.2,23.2,30.13,NNE,12,0.0,0.0,75,0.00,,---,0.00,VWS V14.01,2013-03-31 05:45:00,
2013-03-31 01:50:00,30.1,23.5,30.12,NNE,12,0.0,0.0,76,0.00,,---,0.00,VWS V14.01,2013-03-31 05:50:00,
2013-03-31 01:55:00,29.9,23.3,30.12,NNE,12,0.0,0.0,76,0.00,,---,0.00,VWS V14.01,2013-03-31 05:55:00,
2013-03-31 02:00:00,29.8,23.5,30.12,NNE,12,0.0,0.0,77,0.00,,---,0.00,VWS V14.01,2013-03-31 06:00:00,
2013-03-31 02:05:00,29.8,23.5,30.12,NNE,12,0.0,0.0,77,0.00,,---,0.00,VWS V14.01,2013-03-31 06:05:00,
2013-03-31 02:10:00,29.7,23.4,30.12,NNE,12,0.0,0.0,77,0.00,,---,0.00,VWS V14.01,2013-03-31 06:10:00,
2013-03-31 02:15:00,29.6,23.3,30.12,NNE,12,0.0,0.0,77,0.00,,---,0.00,VWS V14.01,2013-03-31 06:15:00,
2013-03-31 02:20:00,29.6,23.3,30.11,NNE,12,0.0,0.0,77,0.00,,---,0.00,VWS V14.01,2013-03-31 06:20:00,
2013-03-31 02:25:00,29.6,23.3,30.11,NNE,12,0.0,0.0,77,0.00,,---,0.00,VWS V14.01,2013-03-31 06:25:00,
2013-03-31 02:30:00,29.4,23.1,30.11,NNE,12,0.0,0.0,77,0.00,,---,0.00,VWS V14.01,2013-03-31 06:30:00,
2013-03-31 02:35:00,29.3,23.3,30.11,NNE,12,0.0,0.0,78,0.00,,---,0.00,VWS V14.01,2013-03-31 06:35:00,
2013-03-31 02:40:00,29.1,23.4,30.11,NNE,12,0.0,0.0,79,0.00,,---,0.00,VWS V14.01,2013-03-31 06:40:00,
2013-03-31 02:45:00,29.2,23.5,30.11,NNE,12,0.0,0.0,79,0.00,,---,0.00,VWS V14.01,2013-03-31 06:45:00,
2013-03-31 02:50:00,29.2,23.5,30.11,NNE,12,0.0,0.0,79,0.00,,---,0.00,VWS V14.01,2013-03-31 06:50:00,
2013-03-31 02:55:00,29.0,23.3,30.11,NNE,12,0.0,0.0,79,0.00,,---,0.00,VWS V14.01,2013-03-31 06:55:00,
2013-03-31 03:00:00,29.0,23.0,30.11,NNE,12,0.0,0.0,78,0.00,,---,0.00,VWS V14.01,2013-03-31 07:00:00,
2013-03-31 03:05:00,28.9,22.9,30.11,NNE,12,0.0,0.0,78,0.00,,---,0.00,VWS V14.01,2013-03-31 07:05:00,
2013-03-31 03:10:00,28.8,22.8,30.11,NNE,12,0.0,0.0,78,0.00,,---,0.00,VWS V14.01,2013-03-31 07:10:00,
2013-03-31 03:15:00,28.7,23.0,30.11,NNE,12,0.0,0.0,79,0.00,,---,0.00,VWS V14.01,2013-03-31 07:15:00,
2013-03-31 03:20:00,28.6,22.6,30.11,NNE,12,0.0,0.0,78,0.00,,---,0.00,VWS V14.01,2013-03-31 07:20:00,
2013-03-31 03:25:00,28.5,22.5,30.11,NNE,12,0.0,0.0,78,0.00,,---,0.00,VWS V14.01,2013-03-31 07:25:00,
2013-03-31 03:30:00,28.5,22.8,30.11,NNE,12,0.0,0.0,79,0.00,,---,0.00,VWS V14.01,2013-03-31 07:30:00,
2013-03-31 03:35:00,28.5,22.8,30.11,NNE,12,0.0,0.0,79,0.00,,---,0.00,VWS V14.01,2013-03-31 07:35:00,
2013-03-31 03:40:00,28.6,22.9,30.11,NNE,12,0.0,0.0,79,0.00,,---,0.00,VWS V14.01,2013-03-31 07:40:00,
2013-03-31 03:45:00,28.8,22.8,30.11,NNE,12,0.0,0.0,78,0.00,,---,0.00,VWS V14.01,2013-03-31 07:45:00,
2013-03-31 03:50:00,28.8,22.5,30.11,NNE,12,0.0,0.0,77,0.00,,---,0.00,VWS V14.01,2013-03-31 07:50:00,
2013-03-31 03:55:00,28.7,22.4,30.11,NNE,12,0.0,0.0,77,0.00,,---,0.00,VWS V14.01,2013-03-31 07:55:00,
2013-03-31 04:00:00,28.5,22.2,30.11,NNE,12,0.0,0.0,77,0.00,,---,0.00,VWS V14.01,2013-03-31 08:00:00,
2013-03-31 04:05:00,28.4,22.4,30.11,NNE,12,0.0,0.0,78,0.00,,---,0.00,VWS V14.01,2013-03-31 08:05:00,
2013-03-31 04:10:00,28.3,22.3,30.11,NNE,12,0.0,0.0,78,0.00,,---,0.00,VWS V14.01,2013-03-31 08:10:00,
2013-03-31 04:15:00,28.1,22.1,30.11,NNE,12,0.0,0.0,78,0.00,,---,0.00,VWS V14.01,2013-03-31 08:15:00,
2013-03-31 04:20:00,28.1,22.1,30.11,NNE,12,0.0,0.0,78,0.00,,---,0.00,VWS V14.01,2013-03-31 08:20:00,
2013-03-31 04:25:00,28.1,22.1,30.11,NNE,12,0.0,0.0,78,0.00,,---,0.00,VWS V14.01,2013-03-31 08:25:00,
2013-03-31 04:30:00,27.9,22.2,30.11,NNE,12,0.0,0.0,79,0.00,,---,0.00,VWS V14.01,2013-03-31 08:30:00,
2013-03-31 04:35:00,28.0,22.3,30.11,NNE,12,0.0,0.0,79,0.00,,---,0.00,VWS V14.01,2013-03-31 08:35:00,
2013-03-31 04:40:00,28.0,22.0,30.11,NNE,12,0.0,0.0,78,0.00,,---,0.00,VWS V14.01,2013-03-31 08:40:00,
2013-03-31 04:45:00,27.9,21.9,30.11,NNE,12,0.0,0.0,78,0.00,,---,0.00,VWS V14.01,2013-03-31 08:45:00,
2013-03-31 04:50:00,27.8,21.9,30.12,NNE,12,0.0,0.0,78,0.00,,---,0.00,VWS V14.01,2013-03-31 08:50:00,
2013-03-31 04:55:00,27.6,22.0,30.12,NNE,12,0.0,0.0,79,0.00,,---,0.00,VWS V14.01,2013-03-31 08:55:00,
2013-03-31 05:00:00,27.6,22.2,30.12,NNE,12,0.0,0.0,80,0.00,,---,0.00,VWS V14.01,2013-03-31 09:00:00,
2013-03-31 05:05:00,27.5,22.1,30.12,NNE,12,0.0,0.0,80,0.00,,---,0.00,VWS V14.01,2013-03-31 09:05:00,
2013-03-31 05:10:00,27.4,22.0,30.12,NNE,12,0.0,0.0,80,0.00,,---,0.00,VWS V14.01,2013-03-31 09:10:00,
2013-03-31 05:15:00,27.3,22.0,30.12,NNE,12,0.0,0.0,80,0.00,,---,0.00,VWS V14.01,2013-03-31 09:15:00,
2013-03-31 05:20:00,27.2,21.9,30.12,NNE,12,0.0,0.0,80,0.00,,---,0.00,VWS V14.01,2013-03-31 09:20:00,
2013-03-31 05:25:00,27.1,21.8,30.12,NNE,12,0.0,0.0,80,0.00,,---,0.00,VWS V14.01,2013-03-31 09:25:00,
2013-03-31 05:30:00,27.0,21.7,30.12,NNE,12,0.0,0.0,80,0.00,,---,0.00,VWS V14.01,2013-03-31 09:30:00,
2013-03-31 05:35:00,27.0,21.7,30.12,NNE,12,0.0,0.0,80,0.00,,---,0.00,VWS V14.01,2013-03-31 09:35:00,
2013-03-31 05:40:00,26.8,21.8,30.12,NNE,12,0.0,0.0,81,0.00,,---,0.00,VWS V14.01,2013-03-31 09:40:00,
2013-03-31 05:45:00,26.7,21.7,30.12,NNE,12,0.0,0.0,81,0.00,,---,0.00,VWS V14.01,2013-03-31 09:45:00,
2013-03-31 05:50:00,26.6,21.6,30.12,NNE,12,0.0,0.0,81,0.00,,---,0.00,VWS V14.01,2013-03-31 09:50:00,
2013-03-31 05:55:00,26.5,21.8,30.12,NNE,12,0.0,0.0,82,0.00,,---,0.00,VWS V14.01,2013-03-31 09:55:00,
2013-03-31 06:00:00,26.5,21.8,30.12,NNE,12,0.0,0.0,82,0.00,,---,0.00,VWS V14.01,2013-03-31 10:00:00,
2013-03-31 06:05:00,26.5,22.0,30.12,NNE,12,0.0,0.0,83,0.00,,---,0.00,VWS V14.01,2013-03-31 10:05:00,
2013-03-31 06:10:00,26.5,22.0,30.12,NNE,12,0.0,0.0,83,0.00,,---,0.00,VWS V14.01,2013-03-31 10:10:00,
2013-03-31 06:15:00,26.6,22.1,30.11,NNE,12,0.0,0.0,83,0.00,,---,0.00,VWS V14.01,2013-03-31 10:15:00,
2013-03-31 06:20:00,26.7,22.2,30.12,NNE,12,0.0,0.0,83,0.00,,---,0.00,VWS V14.01,2013-03-31 10:20:00,
2013-03-31 06:25:00,26.6,21.9,30.12,NNE,12,0.0,0.0,82,0.00,,---,0.00,VWS V14.01,2013-03-31 10:25:00,
2013-03-31 06:30:00,26.5,22.0,30.12,NNE,12,0.0,0.0,83,0.00,,---,0.00,VWS V14.01,2013-03-31 10:30:00,
2013-03-31 06:35:00,26.5,22.0,30.12,NNE,12,0.0,0.0,83,0.00,,---,0.00,VWS V14.01,2013-03-31 10:35:00,
2013-03-31 06:40:00,26.4,22.2,30.12,NNE,12,0.0,0.0,84,0.00,,---,0.00,VWS V14.01,2013-03-31 10:40:00,
2013-03-31 06:45:00,26.4,22.2,30.12,NNE,12,0.0,0.0,84,0.00,,---,0.00,VWS V14.01,2013-03-31 10:45:00,
2013-03-31 06:50:00,26.4,22.2,30.12,NNE,12,0.0,0.0,84,0.00,,---,0.00,VWS V14.01,2013-03-31 10:50:00,
2013-03-31 06:55:00,26.5,22.6,30.13,NNE,12,0.0,0.0,85,0.00,,---,0.00,VWS V14.01,2013-03-31 10:55:00,
2013-03-31 07:00:00,26.5,22.6,30.13,NNE,12,0.0,0.0,85,0.00,,---,0.00,VWS V14.01,2013-03-31 11:00:00,
2013-03-31 07:05:00,26.7,22.8,30.13,NNE,12,0.0,0.0,85,0.00,,---,0.00,VWS V14.01,2013-03-31 11:05:00,
2013-03-31 07:10:00,27.0,23.1,30.13,NNE,12,0.0,0.0,85,0.00,,---,0.00,VWS V14.01,2013-03-31 11:10:00,
2013-03-31 07:15:00,27.4,23.5,30.13,NNE,12,0.0,0.0,85,0.00,,---,0.00,VWS V14.01,2013-03-31 11:15:00,
2013-03-31 07:20:00,27.9,24.0,30.13,NNE,12,0.0,0.0,85,0.00,,---,0.00,VWS V14.01,2013-03-31 11:20:00,
2013-03-31 07:25:00,28.4,24.2,30.13,NNE,12,0.0,0.0,84,0.00,,---,0.00,VWS V14.01,2013-03-31 11:25:00,
2013-03-31 07:30:00,28.9,24.7,30.13,NNE,12,0.0,0.0,84,0.00,,---,0.00,VWS V14.01,2013-03-31 11:30:00,
2013-03-31 07:35:00,29.4,25.2,30.13,NNE,12,0.0,0.0,84,0.00,,---,0.00,VWS V14.01,2013-03-31 11:35:00,
2013-03-31 07:40:00,30.4,25.9,30.13,NNE,12,0.0,0.0,83,0.00,,---,0.00,VWS V14.01,2013-03-31 11:40:00,
2013-03-31 07:45:00,31.2,26.6,30.13,NNE,12,0.0,0.0,83,0.00,,---,0.00,VWS V14.01,2013-03-31 11:45:00,
2013-03-31 07:50:00,31.8,26.4,30.13,NNE,12,0.0,0.0,80,0.00,,---,0.00,VWS V14.01,2013-03-31 11:50:00,
2013-03-31 07:55:00,32.4,26.6,30.13,NNE,12,0.0,0.0,79,0.00,,---,0.00,VWS V14.01,2013-03-31 11:55:00,
2013-03-31 08:00:00,33.1,27.3,30.13,NNE,12,0.0,0.0,79,0.00,,---,0.00,VWS V14.01,2013-03-31 12:00:00,
2013-03-31 08:05:00,34.1,28.3,30.13,NNE,12,0.0,0.0,79,0.00,,---,0.00,VWS V14.01,2013-03-31 12:05:00,
2013-03-31 08:10:00,35.5,29.0,30.12,NNE,12,0.0,0.0,77,0.00,,---,0.00,VWS V14.01,2013-03-31 12:10:00,
2013-03-31 08:15:00,36.8,29.3,30.12,NNE,12,0.0,0.0,74,0.00,,---,0.00,VWS V14.01,2013-03-31 12:15:00,
2013-03-31 08:20:00,38.7,30.1,30.12,NNE,12,0.0,0.0,71,0.00,,---,0.00,VWS V14.01,2013-03-31 12:20:00,
2013-03-31 08:25:00,40.2,30.1,30.12,NNE,12,0.0,1.0,67,0.00,,---,0.00,VWS V14.01,2013-03-31 12:25:00,
2013-03-31 08:30:00,41.5,29.1,30.11,NNE,12,0.0,0.0,61,0.00,,---,0.00,VWS V14.01,2013-03-31 12:30:00,
2013-03-31 08:35:00,42.4,28.7,30.11,NNE,12,0.0,0.0,58,0.00,,---,0.00,VWS V14.01,2013-03-31 12:35:00,
2013-03-31 08:40:00,43.3,28.2,30.11,NNE,12,0.0,0.0,55,0.00,,---,0.00,VWS V14.01,2013-03-31 12:40:00,
2013-03-31 08:45:00,44.2,28.2,30.11,NNE,12,0.0,1.0,53,0.00,,---,0.00,VWS V14.01,2013-03-31 12:45:00,
2013-03-31 08:50:00,44.9,26.9,30.11,NNE,12,0.0,1.0,49,0.00,,---,0.00,VWS V14.01,2013-03-31 12:50:00,
2013-03-31 08:55:00,45.5,26.5,30.11,NNE,12,0.0,1.0,47,0.00,,---,0.00,VWS V14.01,2013-03-31 12:55:00,
2013-03-31 09:00:00,45.9,27.3,30.11,NNE,12,1.0,1.0,48,0.00,,---,0.00,VWS V14.01,2013-03-31 13:00:00,
2013-03-31 09:05:00,46.1,26.5,30.11,NNE,12,0.0,2.0,46,0.00,,---,0.00,VWS V14.01,2013-03-31 13:05:00,
2013-03-31 09:10:00,46.3,27.2,30.11,NNE,12,1.0,1.0,47,0.00,,---,0.00,VWS V14.01,2013-03-31 13:10:00,
2013-03-31 09:15:00,46.7,26.5,30.11,NNE,12,0.0,1.0,45,0.00,,---,0.00,VWS V14.01,2013-03-31 13:15:00,
2013-03-31 09:20:00,47.3,26.5,30.11,NNE,13,0.0,2.0,44,0.00,,---,0.00,VWS V14.01,2013-03-31 13:20:00,
2013-03-31 09:25:00,47.6,26.2,30.10,NNE,13,1.0,1.0,43,0.00,,---,0.00,VWS V14.01,2013-03-31 13:25:00,
2013-03-31 09:30:00,48.3,26.9,30.10,North,6,1.0,2.0,43,0.00,,---,0.00,VWS V14.01,2013-03-31 13:30:00,
2013-03-31 09:35:00,48.4,26.4,30.10,South,175,0.0,4.0,42,0.00,,---,0.00,VWS V14.01,2013-03-31 13:35:00,
2013-03-31 09:40:00,48.6,26.0,30.10,SSE,152,0.0,3.0,41,0.00,,---,0.00,VWS V14.01,2013-03-31 13:40:00,
2013-03-31 09:45:00,48.6,23.5,30.10,South,175,1.0,4.0,37,0.00,,---,0.00,VWS V14.01,2013-03-31 13:45:00,
2013-03-31 09:50:00,48.8,25.6,30.10,SE,139,1.0,5.0,40,0.00,,---,0.00,VWS V14.01,2013-03-31 13:50:00,
2013-03-31 09:55:00,49.1,25.8,30.10,SE,144,1.0,3.0,40,0.00,,---,0.00,VWS V14.01,2013-03-31 13:55:00,
2013-03-31 10:00:00,49.4,26.1,30.10,SSW,213,1.0,4.0,40,0.00,,---,0.00,VWS V14.01,2013-03-31 14:00:00,
2013-03-31 10:05:00,49.6,26.3,30.10,SSE,157,3.0,4.0,40,0.00,,---,0.00,VWS V14.01,2013-03-31 14:05:00,
2013-03-31 10:10:00,49.6,25.7,30.10,WSW,248,3.0,6.0,39,0.00,,---,0.00,VWS V14.01,2013-03-31 14:10:00,
2013-03-31 10:15:00,49.8,25.9,30.10,South,173,1.0,7.0,39,0.00,,---,0.00,VWS V14.01,2013-03-31 14:15:00,
2013-03-31 10:20:00,50.3,25.7,30.10,WNW,282,4.0,5.0,38,0.00,,---,0.00,VWS V14.01,2013-03-31 14:20:00,
2013-03-31 10:25:00,50.8,26.8,30.10,SSE,153,3.0,5.0,39,0.00,,---,0.00,VWS V14.01,2013-03-31 14:25:00,
2013-03-31 10:30:00,51.1,26.4,30.10,SE,135,0.0,5.0,38,0.00,,---,0.00,VWS V14.01,2013-03-31 14:30:00,
2013-03-31 10:35:00,51.8,26.4,30.09,SSW,194,0.0,3.0,37,0.00,,---,0.00,VWS V14.01,2013-03-31 14:35:00,
2013-03-31 10:40:00,52.1,25.3,30.09,WNW,291,0.0,7.0,35,0.00,,---,0.00,VWS V14.01,2013-03-31 14:40:00,
2013-03-31 10:45:00,52.4,25.6,30.09,West,281,2.0,4.0,35,0.00,,---,0.00,VWS V14.01,2013-03-31 14:45:00,
2013-03-31 10:50:00,52.9,26.0,30.09,South,187,2.0,6.0,35,0.00,,---,0.00,VWS V14.01,2013-03-31 14:50:00,
2013-03-31 10:55:00,53.1,25.5,30.09,SE,138,0.0,4.0,34,0.00,,---,0.00,VWS V14.01,2013-03-31 14:55:00,
2013-03-31 11:00:00,53.7,25.3,30.09,West,264,1.0,6.0,33,0.00,,---,0.00,VWS V14.01,2013-03-31 15:00:00,
2013-03-31 11:05:00,54.4,25.9,30.09,SSE,151,1.0,5.0,33,0.00,,---,0.00,VWS V14.01,2013-03-31 15:05:00,
2013-03-31 11:10:00,55.0,28.6,30.09,SE,136,0.0,4.0,36,0.00,,---,0.00,VWS V14.01,2013-03-31 15:10:00,
2013-03-31 11:15:00,55.3,27.4,30.08,SSW,200,2.0,6.0,34,0.00,,---,0.00,VWS V14.01,2013-03-31 15:15:00,
2013-03-31 11:20:00,55.3,26.7,30.08,SSW,200,1.0,5.0,33,0.00,,---,0.00,VWS V14.01,2013-03-31 15:20:00,
2013-03-31 11:25:00,55.5,24.6,30.08,NW,318,4.0,6.0,30,0.00,,---,0.00,VWS V14.01,2013-03-31 15:25:00,
2013-03-31 11:30:00,55.7,26.3,30.08,SSE,165,1.0,4.0,32,0.00,,---,0.00,VWS V14.01,2013-03-31 15:30:00,
2013-03-31 11:35:00,56.3,26.8,30.08,SE,124,1.0,4.0,32,0.00,,---,0.00,VWS V14.01,2013-03-31 15:35:00,
2013-03-31 11:40:00,56.3,25.3,30.08,NW,321,5.0,9.0,30,0.00,,---,0.00,VWS V14.01,2013-03-31 15:40:00,
2013-03-31 11:45:00,56.4,24.6,30.07,SSW,210,0.0,6.0,29,0.00,,---,0.00,VWS V14.01,2013-03-31 15:45:00,
2013-03-31 11:50:00,56.6,27.1,30.08,NW,315,5.0,9.0,32,0.00,,---,0.00,VWS V14.01,2013-03-31 15:50:00,
2013-03-31 11:55:00,56.5,25.5,30.07,SE,146,1.0,10.0,30,0.00,,---,0.00,VWS V14.01,2013-03-31 15:55:00,
2013-03-31 12:00:00,56.9,26.6,30.07,SW,215,3.0,5.0,31,0.00,,---,0.00,VWS V14.01,2013-03-31 16:00:00,
2013-03-31 12:05:00,57.4,26.2,30.07,SW,233,3.0,6.0,30,0.00,,---,0.00,VWS V14.01,2013-03-31 16:05:00,
2013-03-31 12:10:00,57.9,25.9,30.06,SW,222,3.0,4.0,29,0.00,,---,0.00,VWS V14.01,2013-03-31 16:10:00,
2013-03-31 12:15:00,58.0,26.0,30.06,NW,318,0.0,9.0,29,0.00,,---,0.00,VWS V14.01,2013-03-31 16:15:00,
2013-03-31 12:20:00,58.4,26.3,30.06,NE,40,1.0,4.0,29,0.00,,---,0.00,VWS V14.01,2013-03-31 16:20:00,
2013-03-31 12:25:00,58.8,28.3,30.05,SSE,161,2.0,4.0,31,0.00,,---,0.00,VWS V14.01,2013-03-31 16:25:00,
2013-03-31 12:30:00,58.9,25.9,30.05,SE,135,1.0,7.0,28,0.00,,---,0.00,VWS V14.01,2013-03-31 16:30:00,
2013-03-31 12:35:00,59.0,26.0,30.05,South,185,3.0,11.0,28,0.00,,---,0.00,VWS V14.01,2013-03-31 16:35:00,
2013-03-31 12:40:00,58.8,25.8,30.05,SSW,203,1.0,5.0,28,0.00,,---,0.00,VWS V14.01,2013-03-31 16:40:00,
2013-03-31 12:45:00,58.6,25.6,30.04,SSW,197,3.0,9.0,28,0.00,,---,0.00,VWS V14.01,2013-03-31 16:45:00,
2013-03-31 12:50:00,58.6,25.6,30.04,SSE,167,0.0,6.0,28,0.00,,---,0.00,VWS V14.01,2013-03-31 16:50:00,
2013-03-31 12:55:00,58.8,24.9,30.04,SSE,147,1.0,6.0,27,0.00,,---,0.00,VWS V14.01,2013-03-31 16:55:00,
2013-03-31 13:00:00,59.1,25.2,30.03,South,175,0.0,7.0,27,0.00,,---,0.00,VWS V14.01,2013-03-31 17:00:00,
2013-03-31 13:05:00,59.2,25.3,30.03,SSE,151,3.0,10.0,27,0.00,,---,0.00,VWS V14.01,2013-03-31 17:05:00,
2013-03-31 13:10:00,59.2,26.1,30.03,SW,216,1.0,8.0,28,0.00,,---,0.00,VWS V14.01,2013-03-31 17:10:00,
2013-03-31 13:15:00,59.3,25.4,30.03,South,180,3.0,6.0,27,0.00,,---,0.00,VWS V14.01,2013-03-31 17:15:00,
2013-03-31 13:24:00,59.3,25.4,30.03,South,180,3.0,6.0,27,0.00,,---,0.00,VWS V14.01,2013-03-31 17:24:00,
2013-03-31 13:25:00,59.5,25.5,30.02,WNW,300,0.0,3.0,27,0.00,,---,0.00,VWS V14.01,2013-03-31 17:25:00,
2013-03-31 13:30:00,59.7,26.6,30.02,SSW,196,0.0,5.0,28,0.00,,---,0.00,VWS V14.01,2013-03-31 17:30:00,
2013-03-31 13:35:00,59.6,26.5,30.02,SE,138,5.0,7.0,28,0.00,,---,0.00,VWS V14.01,2013-03-31 17:35:00,
2013-03-31 13:40:00,59.2,27.8,30.01,SE,140,0.0,8.0,30,0.00,,---,0.00,VWS V14.01,2013-03-31 17:40:00,
2013-03-31 13:45:00,59.1,26.0,30.01,South,185,0.0,6.0,28,0.00,,---,0.00,VWS V14.01,2013-03-31 17:45:00,
2013-03-31 13:50:00,58.8,24.9,30.01,South,191,2.0,11.0,27,0.00,,---,0.00,VWS V14.01,2013-03-31 17:50:00,
2013-03-31 13:55:00,58.7,26.5,30.01,SSE,147,3.0,5.0,29,0.00,,---,0.00,VWS V14.01,2013-03-31 17:55:00,
2013-03-31 14:00:00,58.8,26.6,30.01,WSW,239,6.0,7.0,29,0.00,,---,0.00,VWS V14.01,2013-03-31 18:00:00,
2013-03-31 14:05:00,58.9,25.9,30.00,East,84,2.0,10.0,28,0.00,,---,0.00,VWS V14.01,2013-03-31 18:05:00,
2013-03-31 14:10:00,58.9,25.9,30.00,West,277,11.0,12.0,28,0.00,,---,0.00,VWS V14.01,2013-03-31 18:10:00,
2013-03-31 14:15:00,58.9,25.0,30.00,South,176,2.0,14.0,27,0.00,,---,0.00,VWS V14.01,2013-03-31 18:15:00,
2013-03-31 14:20:00,58.6,25.6,29.99,SSE,164,1.0,11.0,28,0.00,,---,0.00,VWS V14.01,2013-03-31 18:20:00,
2013-03-31 14:25:00,58.6,26.5,29.99,SSW,208,4.0,7.0,29,0.00,,---,0.00,VWS V14.01,2013-03-31 18:25:00,
2013-03-31 14:30:00,58.7,27.4,29.99,SSW,207,4.0,10.0,30,0.00,,---,0.00,VWS V14.01,2013-03-31 18:30:00,
2013-03-31 14:35:00,58.7,25.7,29.99,South,182,2.0,9.0,28,0.00,,---,0.00,VWS V14.01,2013-03-31 18:35:00,
2013-03-31 14:40:00,58.6,25.6,29.99,SSE,166,7.0,12.0,28,0.00,,---,0.00,VWS V14.01,2013-03-31 18:40:00,
2013-03-31 14:45:00,58.8,26.6,29.98,SSE,154,3.0,8.0,29,0.00,,---,0.00,VWS V14.01,2013-03-31 18:45:00,
2013-03-31 14:50:00,59.1,25.2,29.99,SSW,201,6.0,9.0,27,0.00,,---,0.00,VWS V14.01,2013-03-31 18:50:00,
2013-03-31 14:55:00,58.9,24.1,29.98,SW,230,0.0,11.0,26,0.00,,---,0.00,VWS V14.01,2013-03-31 18:55:00,
2013-03-31 15:00:00,58.9,26.7,29.98,ENE,66,1.0,11.0,29,0.00,,---,0.00,VWS V14.01,2013-03-31 19:00:00,
2013-03-31 15:05:00,58.8,25.8,29.98,South,180,4.0,10.0,28,0.00,,---,0.00,VWS V14.01,2013-03-31 19:05:00,
2013-03-31 15:10:00,58.6,26.5,29.98,SSW,208,2.0,7.0,29,0.00,,---,0.00,VWS V14.01,2013-03-31 19:10:00,
2013-03-31 15:15:00,58.4,26.3,29.98,South,171,5.0,13.0,29,0.00,,---,0.00,VWS V14.01,2013-03-31 19:15:00,
2013-03-31 15:20:00,58.2,26.1,29.97,NE,54,0.0,12.0,29,0.00,,---,0.00,VWS V14.01,2013-03-31 19:20:00,
2013-03-31 15:25:00,58.1,26.0,29.97,SSW,209,1.0,14.0,29,0.00,,---,0.00,VWS V14.01,2013-03-31 19:25:00,
2013-03-31 15:30:00,58.0,25.1,29.97,SW,221,1.0,13.0,28,0.00,,---,0.00,VWS V14.01,2013-03-31 19:30:00,
2013-03-31 15:35:00,58.0,26.0,29.98,SSE,147,2.0,13.0,29,0.00,,---,0.00,VWS V14.01,2013-03-31 19:35:00,
2013-03-31 15:40:00,57.8,26.6,29.97,South,187,9.0,9.0,30,0.00,,---,0.00,VWS V14.01,2013-03-31 19:40:00,
2013-03-31 15:45:00,57.7,25.7,29.97,WNW,285,3.0,16.0,29,0.00,,---,0.00,VWS V14.01,2013-03-31 19:45:00,
2013-03-31 15:50:00,57.4,25.4,29.97,SE,127,1.0,10.0,29,0.00,,---,0.00,VWS V14.01,2013-03-31 19:50:00,
2013-03-31 15:55:00,57.3,27.0,29.97,West,261,5.0,7.0,31,0.00,,---,0.00,VWS V14.01,2013-03-31 19:55:00,
2013-03-31 16:00:00,57.1,26.0,29.97,SW,231,4.0,9.0,30,0.00,,---,0.00,VWS V14.01,2013-03-31 20:00:00,
2013-03-31 16:05:00,57.0,25.9,29.97,SSW,208,5.0,7.0,30,0.00,,---,0.00,VWS V14.01,2013-03-31 20:05:00,
2013-03-31 16:10:00,56.8,27.3,29.97,SE,130,1.0,12.0,32,0.00,,---,0.00,VWS V14.01,2013-03-31 20:10:00,
2013-03-31 16:15:00,56.6,24.7,29.97,South,175,4.0,14.0,29,0.00,,---,0.00,VWS V14.01,2013-03-31 20:15:00,
2013-03-31 16:20:00,56.5,26.2,29.97,SE,145,2.0,11.0,31,0.00,,---,0.00,VWS V14.01,2013-03-31 20:20:00,
2013-03-31 16:25:00,56.4,25.4,29.97,WSW,237,7.0,15.0,30,0.00,,---,0.00,VWS V14.01,2013-03-31 20:25:00,
2013-03-31 16:30:00,56.3,25.3,29.97,SW,230,4.0,13.0,30,0.00,,---,0.00,VWS V14.01,2013-03-31 20:30:00,
2013-03-31 16:35:00,56.1,25.9,29.97,WNW,298,4.0,11.0,31,0.00,,---,0.00,VWS V14.01,2013-03-31 20:35:00,
2013-03-31 16:40:00,55.9,24.9,29.96,SSW,192,2.0,7.0,30,0.00,,---,0.00,VWS V14.01,2013-03-31 20:40:00,
2013-03-31 16:45:00,55.6,24.7,29.96,South,188,6.0,19.0,30,0.00,,---,0.00,VWS V14.01,2013-03-31 20:45:00,
2013-03-31 16:50:00,55.7,24.8,29.96,WSW,257,6.0,11.0,30,0.00,,---,0.00,VWS V14.01,2013-03-31 20:50:00,
2013-03-31 16:55:00,55.9,25.7,29.96,NNW,336,10.0,14.0,31,0.00,,---,0.00,VWS V14.01,2013-03-31 20:55:00,
2013-03-31 17:00:00,55.9,24.9,29.96,SSW,204,12.0,13.0,30,0.00,,---,0.00,VWS V14.01,2013-03-31 21:00:00,
2013-03-31 17:05:00,56.0,25.0,29.96,WSW,252,4.0,15.0,30,0.00,,---,0.00,VWS V14.01,2013-03-31 21:05:00,
2013-03-31 17:10:00,56.2,26.0,29.96,SE,137,3.0,5.0,31,0.00,,---,0.00,VWS V14.01,2013-03-31 21:10:00,
2013-03-31 17:15:00,56.1,25.1,29.96,South,182,5.0,9.0,30,0.00,,---,0.00,VWS V14.01,2013-03-31 21:15:00,
2013-03-31 17:20:00,55.5,24.6,29.96,South,172,9.0,14.0,30,0.00,,---,0.00,VWS V14.01,2013-03-31 21:20:00,
2013-03-31 17:25:00,54.8,25.5,29.96,NE,40,1.0,13.0,32,0.00,,---,0.00,VWS V14.01,2013-03-31 21:25:00,
2013-03-31 17:30:00,54.5,25.3,29.96,SSE,156,9.0,11.0,32,0.00,,---,0.00,VWS V14.01,2013-03-31 21:30:00,
2013-03-31 17:35:00,54.3,25.1,29.96,SE,125,3.0,12.0,32,0.00,,---,0.00,VWS V14.01,2013-03-31 21:35:00,
2013-03-31 17:40:00,54.1,25.6,29.96,SSW,196,0.0,10.0,33,0.00,,---,0.00,VWS V14.01,2013-03-31 21:40:00,
2013-03-31 17:45:00,54.0,27.0,29.96,South,171,2.0,6.0,35,0.00,,---,0.00,VWS V14.01,2013-03-31 21:45:00,
2013-03-31 17:50:00,53.9,28.9,29.96,SW,226,7.0,13.0,38,0.00,,---,0.00,VWS V14.01,2013-03-31 21:50:00,
2013-03-31 17:55:00,53.5,29.8,29.96,SSE,152,4.0,11.0,40,0.00,,---,0.00,VWS V14.01,2013-03-31 21:55:00,
2013-03-31 18:00:00,53.3,30.2,29.96,SW,234,7.0,12.0,41,0.00,,---,0.00,VWS V14.01,2013-03-31 22:00:00,
2013-03-31 18:05:00,53.1,31.2,29.96,SSW,208,6.0,11.0,43,0.00,,---,0.00,VWS V14.01,2013-03-31 22:05:00,
2013-03-31 18:10:00,52.9,32.2,29.96,West,261,0.0,10.0,45,0.00,,---,0.00,VWS V14.01,2013-03-31 22:10:00,
2013-03-31 18:15:00,52.7,32.0,29.96,WSW,255,1.0,7.0,45,0.00,,---,0.00,VWS V14.01,2013-03-31 22:15:00,
2013-03-31 18:20:00,52.6,33.5,29.96,SE,138,1.0,7.0,48,0.00,,---,0.00,VWS V14.01,2013-03-31 22:20:00,
2013-03-31 18:25:00,52.4,32.8,29.96,SSW,210,3.0,9.0,47,0.00,,---,0.00,VWS V14.01,2013-03-31 22:25:00,
2013-03-31 18:30:00,52.2,33.6,29.95,South,188,3.0,13.0,49,0.00,,---,0.00,VWS V14.01,2013-03-31 22:30:00,
2013-03-31 18:35:00,52.1,33.5,29.96,SSW,204,0.0,5.0,49,0.00,,---,0.00,VWS V14.01,2013-03-31 22:35:00,
2013-03-31 18:40:00,51.9,33.9,29.96,ESE,104,0.0,10.0,50,0.00,,---,0.00,VWS V14.01,2013-03-31 22:40:00,
2013-03-31 18:45:00,51.8,34.3,29.96,South,179,5.0,14.0,51,0.00,,---,0.00,VWS V14.01,2013-03-31 22:45:00,
2013-03-31 18:50:00,51.5,34.0,29.96,SSW,199,3.0,7.0,51,0.00,,---,0.00,VWS V14.01,2013-03-31 22:50:00,
2013-03-31 18:55:00,51.4,34.4,29.96,NE,44,1.0,9.0,52,0.00,,---,0.00,VWS V14.01,2013-03-31 22:55:00,
2013-03-31 19:00:00,51.2,34.7,29.95,West,259,7.0,10.0,53,0.00,,---,0.00,VWS V14.01,2013-03-31 23:00:00,
2013-03-31 19:05:00,51.0,34.5,29.95,WSW,255,7.0,10.0,53,0.00,,---,0.00,VWS V14.01,2013-03-31 23:05:00,
2013-03-31 19:10:00,50.9,34.9,29.95,South,177,4.0,11.0,54,0.00,,---,0.00,VWS V14.01,2013-03-31 23:10:00,
2013-03-31 19:15:00,50.8,34.8,29.95,South,185,3.0,5.0,54,0.00,,---,0.00,VWS V14.01,2013-03-31 23:15:00,
2013-03-31 19:20:00,50.7,35.1,29.95,WSW,256,5.0,9.0,55,0.00,,---,0.00,VWS V14.01,2013-03-31 23:20:00,
2013-03-31 19:25:00,50.6,35.0,29.95,SE,131,3.0,12.0,55,0.00,,---,0.00,VWS V14.01,2013-03-31 23:25:00,
2013-03-31 19:30:00,50.5,35.0,29.95,South,176,1.0,7.0,55,0.00,,---,0.00,VWS V14.01,2013-03-31 23:30:00,
2013-03-31 19:35:00,50.4,35.3,29.95,South,179,5.0,11.0,56,0.00,,---,0.00,VWS V14.01,2013-03-31 23:35:00,
2013-03-31 19:40:00,50.4,35.3,29.95,South,181,1.0,7.0,56,0.00,,---,0.00,VWS V14.01,2013-03-31 23:40:00,
2013-03-31 19:45:00,50.3,35.2,29.95,WSW,256,2.0,12.0,56,0.00,,---,0.00,VWS V14.01,2013-03-31 23:45:00,
2013-03-31 19:50:00,50.2,35.6,29.95,ESE,113,4.0,9.0,57,0.00,,---,0.00,VWS V14.01,2013-03-31 23:50:00,
2013-03-31 19:55:00,50.1,35.9,29.95,South,188,6.0,7.0,58,0.00,,---,0.00,VWS V14.01,2013-03-31 23:55:00,
2013-03-31 20:00:00,50.1,36.3,29.95,SW,233,0.0,7.0,59,0.00,,---,0.00,VWS V14.01,2013-04-01 00:00:00,
2013-03-31 20:05:00,49.9,37.0,29.94,SSW,200,4.0,5.0,61,0.00,,---,0.00,VWS V14.01,2013-04-01 00:05:00,
2013-03-31 20:10:00,49.6,37.1,29.94,WSW,249,1.0,9.0,62,0.00,,---,0.00,VWS V14.01,2013-04-01 00:10:00,
2013-03-31 20:15:00,49.4,38.1,29.94,WSW,248,2.0,6.0,65,0.00,,---,0.00,VWS V14.01,2013-04-01 00:15:00,
2013-03-31 20:20:00,49.0,38.2,29.93,WSW,254,1.0,5.0,66,0.00,,---,0.00,VWS V14.01,2013-04-01 00:20:00,
2013-03-31 20:25:00,48.8,38.7,29.93,South,169,0.0,2.0,68,0.00,,---,0.00,VWS V14.01,2013-04-01 00:25:00,
2013-03-31 20:30:00,48.6,38.2,29.93,WSW,237,0.0,3.0,67,0.00,,---,0.00,VWS V14.01,2013-04-01 00:30:00,
2013-03-31 20:35:00,48.5,38.8,29.92,WNW,293,0.0,3.0,69,0.00,,---,0.00,VWS V14.01,2013-04-01 00:35:00,
2013-03-31 20:40:00,48.4,38.3,29.92,South,188,0.0,4.0,68,0.00,,---,0.00,VWS V14.01,2013-04-01 00:40:00,
2013-03-31 20:45:00,48.4,38.0,29.92,ESE,115,0.0,5.0,67,0.00,,---,0.00,VWS V14.01,2013-04-01 00:45:00,
2013-03-31 20:50:00,48.4,38.0,29.92,SSW,200,1.0,4.0,67,0.00,,---,0.00,VWS V14.01,2013-04-01 00:50:00,
2013-03-31 20:55:00,48.3,37.9,29.91,SSW,200,0.0,2.0,67,0.00,,---,0.00,VWS V14.01,2013-04-01 00:55:00,
2013-03-31 21:00:00,48.3,37.9,29.91,SSW,202,0.0,2.0,67,0.00,,---,0.00,VWS V14.01,2013-04-01 01:00:00,
2013-03-31 21:05:00,48.4,38.3,29.90,SSW,202,0.0,3.0,68,0.00,,---,0.00,VWS V14.01,2013-04-01 01:05:00,
2013-03-31 21:12:00,48.4,38.3,29.90,SSW,202,0.0,3.0,68,0.00,,---,0.00,VWS V14.01,2013-04-01 01:12:00,
2013-03-31 21:15:00,48.3,37.9,29.90,South,190,0.0,1.0,67,0.00,,---,0.00,VWS V14.01,2013-04-01 01:15:00,
2013-03-31 21:20:00,48.3,37.1,29.90,SSW,198,0.0,5.0,65,0.00,,---,0.00,VWS V14.01,2013-04-01 01:20:00,
2013-03-31 21:25:00,48.5,37.3,29.89,SSW,210,0.0,3.0,65,0.00,,---,0.00,VWS V14.01,2013-04-01 01:25:00,
2013-03-31 21:30:00,48.5,36.9,29.89,SSE,160,4.0,5.0,64,0.00,,---,0.00,VWS V14.01,2013-04-01 01:30:00,
2013-03-31 21:35:00,48.5,36.9,29.89,ESE,117,0.0,5.0,64,0.00,,---,0.00,VWS V14.01,2013-04-01 01:35:00,
2013-03-31 21:40:00,48.4,36.4,29.88,SSE,163,0.0,4.0,63,0.00,,---,0.00,VWS V14.01,2013-04-01 01:40:00,
2013-03-31 21:45:00,48.4,36.4,29.88,South,170,1.0,3.0,63,0.00,,---,0.00,VWS V14.01,2013-04-01 01:45:00,
2013-03-31 21:50:00,48.3,36.3,29.87,SSE,148,2.0,5.0,63,0.00,,---,0.00,VWS V14.01,2013-04-01 01:50:00,
2013-03-31 21:55:00,48.3,35.9,29.87,SSW,204,0.0,8.0,62,0.00,,---,0.00,VWS V14.01,2013-04-01 01:55:00,
2013-03-31 22:00:00,48.3,35.9,29.86,SSE,148,3.0,7.0,62,0.00,,---,0.00,VWS V14.01,2013-04-01 02:00:00,
2013-03-31 22:05:00,48.2,35.8,29.85,SSE,157,3.0,5.0,62,0.00,,---,0.00,VWS V14.01,2013-04-01 02:05:00,
2013-03-31 22:10:00,48.2,37.4,29.84,SSE,153,0.0,3.0,66,0.00,,---,0.00,VWS V14.01,2013-04-01 02:10:00,
2013-03-31 22:15:00,48.1,36.1,29.84,SE,133,2.0,3.0,63,0.00,,---,0.00,VWS V14.01,2013-04-01 02:15:00,
2013-03-31 22:20:00,48.1,36.1,29.83,SSE,152,0.0,5.0,63,0.00,,---,0.00,VWS V14.01,2013-04-01 02:20:00,
2013-03-31 22:25:00,48.1,35.7,29.83,SE,125,3.0,5.0,62,0.00,,---,0.00,VWS V14.01,2013-04-01 02:25:00,
2013-03-31 22:30:00,48.2,35.8,29.83,SSE,154,1.0,8.0,62,0.00,,---,0.00,VWS V14.01,2013-04-01 02:30:00,
2013-03-31 22:35:00,48.2,35.8,29.83,SSE,158,0.0,4.0,62,0.00,,---,0.00,VWS V14.01,2013-04-01 02:35:00,
2013-03-31 22:40:00,48.3,35.9,29.82,SE,142,1.0,10.0,62,0.00,,---,0.00,VWS V14.01,2013-04-01 02:40:00,
2013-03-31 22:45:00,48.3,36.3,29.82,SE,139,6.0,6.0,63,0.00,,---,0.00,VWS V14.01,2013-04-01 02:45:00,
2013-03-31 22:50:00,48.1,37.3,29.82,SE,145,3.0,6.0,66,0.00,,---,0.00,VWS V14.01,2013-04-01 02:50:00,
2013-03-31 22:55:00,47.9,37.5,29.81,SE,137,1.0,7.0,67,0.00,,---,0.00,VWS V14.01,2013-04-01 02:55:00,
2013-03-31 23:00:00,47.6,38.0,29.81,South,189,4.0,6.0,69,0.00,,---,0.00,VWS V14.01,2013-04-01 03:00:00,
2013-03-31 23:05:00,47.2,38.7,29.80,SE,131,2.0,4.0,72,0.01,,---,0.01,VWS V14.01,2013-04-01 03:05:00,
2013-03-31 23:10:00,46.9,38.7,29.79,SE,140,3.0,4.0,73,0.01,,---,0.01,VWS V14.01,2013-04-01 03:10:00,
2013-03-31 23:15:00,46.7,38.5,29.79,South,173,4.0,7.0,73,0.01,,---,0.01,VWS V14.01,2013-04-01 03:15:00,
2013-03-31 23:20:00,46.7,38.5,29.78,South,169,5.0,6.0,73,0.01,,---,0.01,VWS V14.01,2013-04-01 03:20:00,
2013-03-31 23:25:00,46.6,39.1,29.78,SSE,151,3.0,5.0,75,0.01,,---,0.01,VWS V14.01,2013-04-01 03:25:00,
2013-03-31 23:30:00,46.6,39.1,29.77,SSE,155,0.0,5.0,75,0.01,,---,0.01,VWS V14.01,2013-04-01 03:30:00,
2013-03-31 23:35:00,46.5,39.0,29.76,SSE,158,1.0,6.0,75,0.01,,---,0.01,VWS V14.01,2013-04-01 03:35:00,
2013-03-31 23:40:00,46.5,39.4,29.76,South,179,1.0,5.0,76,0.01,,---,0.01,VWS V14.01,2013-04-01 03:40:00,
2013-03-31 23:45:00,46.4,39.6,29.76,SSE,166,1.0,2.0,77,0.01,,---,0.01,VWS V14.01,2013-04-01 03:45:00,
2013-03-31 23:50:00,46.3,39.8,29.76,South,182,2.0,6.0,78,0.01,,---,0.01,VWS V14.01,2013-04-01 03:50:00,
2013-03-31 23:55:00,46.2,40.4,29.76,SSE,153,1.0,5.0,80,0.01,,---,0.01,VWS V14.01,2013-04-01 03:55:00,